Location: Ústí nad Labem
(50.6611°N, 14.0531°E)
Time: 02:15:29
(UTC+02:00)

S-56A Canister/Altair - Pass Details

Date: 25 April 2024
Orbit: 638 x 2488 km, 38.9° (Epoch: 28 May)

Event Time Altitude Azimuth Distance (km) Brightness Sun altitude
Rises 22:18:35 0° 260° (W) 3,864 11.6 -16.6°
Reaches altitude 10° 22:22:56 10° 234° (SW) 3,274 10.8 -17.0°
Maximum altitude 22:26:19 13° 209° (SSW) 3,324 10.6 -17.4°
Drops below altitude 10° 22:30:10 10° 186° (S) 3,869 10.7 -17.8°
Enters shadow 22:30:34 10° 184° (S) 3,944 10.7 -17.8°
